Total_Precipitation_Accumulation
1.68 1.81 1.75 1.71 1.71 1.76 1.83 1.88 1.89 1.77 1.51 1.11 0.97 0.92 0.93 1.02 1.30 1.15 1.01 1.00 0.89 0.82 0.74 0.66 0.62 0.64 0.78 0.98 1.21 1.42 1.57 1.68 1.73 1.71 1.64 1.60 1.66 1.72
1.47 1.61 1.73 1.75 1.78 1.78 1.84 1.84 1.80 1.77 1.67 1.29 1.04 0.87 0.93 0.91 1.13 0.94 1.04 1.20 0.98 0.81 0.72 0.66 0.63 0.61 0.60 0.68 0.75 0.81 0.85 0.91 1.04 1.21 1.25 1.22 1.21 1.26
1.29 1.33 1.49 1.62 1.73 1.78 1.79 1.78 1.83 1.78 1.66 1.44 1.13 0.95 1.03 1.04 1.10 0.97 0.96 1.01 0.92 0.88 0.79 0.69 0.62 0.61 0.58 0.61 0.62 0.58 0.59 0.60 0.65 0.79 0.90 0.89 0.87 0.89
1.15 1.23 1.30 1.33 1.42 1.56 1.67 1.66 1.75 1.79 1.74 1.63 1.35 1.11 1.09 1.14 1.29 1.30 1.20 1.12 1.09 1.17 1.11 0.93 0.77 0.69 0.65 0.63 0.61 0.57 0.53 0.53 0.53 0.58 0.67 0.80 0.90 0.88
1.00 1.05 1.09 1.17 1.28 1.31 1.39 1.48 1.57 1.63 1.72 1.65 1.55 1.42 1.25 1.18 1.24 1.25 1.32 1.45 1.40 1.38 1.42 1.24 1.02 0.86 0.77 0.73 0.69 0.63 0.58 0.56 0.54 0.53 0.55 0.61 0.72 0.80
0.90 0.97 1.01 1.04 1.13 1.20 1.22 1.34 1.46 1.56 1.58 1.55 1.49 1.42 1.37 1.34 1.34 1.31 1.37 1.50 1.57 1.46 1.43 1.36 1.27 1.14 0.98 0.87 0.77 0.71 0.67 0.63 0.62 0.58 0.57 0.59 0.64 0.68
0.82 0.85 0.88 0.83 0.86 0.93 0.94 1.11 1.27 1.45 1.52 1.55 1.46 1.35 1.30 1.32 1.32 1.33 1.39 1.55 1.59 1.62 1.60 1.48 1.35 1.19 1.06 0.97 0.86 0.79 0.75 0.69 0.65 0.64 0.64 0.63 0.65 0.70
0.72 0.75 0.81 0.83 0.78 0.74 0.74 0.81 0.95 1.07 1.25 1.38 1.41 1.34 1.28 1.25 1.34 1.45 1.46 1.54 1.63 1.57 1.48 1.56 1.48 1.37 1.20 1.02 1.02 0.99 0.88 0.78 0.71 0.68 0.66 0.63 0.61 0.66
0.55 0.67 0.79 0.84 0.87 0.89 0.78 0.76 0.78 0.82 0.92 1.09 1.22 1.23 1.22 1.24 1.30 1.39 1.46 1.50 1.42 1.47 1.43 1.50 1.49 1.36 1.21 1.14 1.18 1.05 0.96 0.88 0.83 0.77 0.70 0.67 0.67 0.70
0.48 0.59 0.74 0.84 0.87 0.89 0.85 0.91 0.89 0.79 0.76 0.84 1.03 1.11 1.11 1.23 1.36 1.47 1.59 1.58 1.52 1.51 1.43 1.44 1.39 1.26 1.16 1.14 1.22 1.08 0.98 0.90 0.85 0.84 0.81 0.78 0.78 0.81
0.45 0.52 0.68 0.77 0.86 0.87 0.85 0.95 0.95 0.78 0.71 0.81 0.86 0.93 1.01 1.13 1.31 1.45 1.54 1.55 1.54 1.51 1.36 1.23 1.18 1.23 1.23 1.16 1.14 1.12 1.00 0.90 0.82 0.78 0.77 0.76 0.79 0.88
0.46 0.51 0.70 0.75 0.77 0.74 0.76 0.97 1.06 0.93 0.71 0.69 0.76 0.89 0.97 1.10 1.32 1.46 1.68 1.68 1.49 1.46 1.35 1.21 1.20 1.28 1.41 1.31 1.13 1.03 0.96 0.97 0.92 0.87 0.84 0.84 0.92 0.91
0.34 0.40 0.43 0.54 0.57 0.61 0.72 0.83 0.93 0.84 0.76 0.84 0.93 0.96 1.03 1.09 1.18 1.31 1.53 1.70 1.64 1.43 1.31 1.32 1.29 1.28 1.26 1.22 1.15 1.04 0.94 0.92 0.90 0.88 0.92 0.95 1.01 0.98
0.25 0.30 0.34 0.44 0.48 0.53 0.60 0.65 0.68 0.73 0.79 0.93 0.96 0.87 0.92 0.98 0.99 1.08 1.25 1.39 1.30 1.25 1.16 1.11 1.12 1.08 1.03 0.96 0.96 1.01 1.01 0.95 0.91 0.90 0.88 1.03 1.09 1.10
0.20 0.26 0.29 0.36 0.37 0.42 0.50 0.52 0.60 0.81 0.93 0.88 0.86 0.83 0.81 0.85 0.84 0.95 1.14 1.29 1.25 1.08 1.00 0.94 0.94 0.95 0.93 0.88 0.83 0.81 0.87 0.90 0.85 0.86 0.89 0.89 0.89 0.97
0.24 0.27 0.29 0.35 0.37 0.39 0.46 0.53 0.65 0.81 0.96 0.81 0.69 0.70 0.71 0.80 0.87 0.85 0.95 1.04 1.19 1.18 1.06 0.99 0.95 0.95 0.93 0.84 0.81 0.77 0.71 0.74 0.78 0.85 0.89 0.89 0.87 0.84
0.27 0.35 0.46 0.55 0.54 0.54 0.59 0.63 0.67 0.67 0.73 0.67 0.67 0.72 0.75 0.77 0.83 0.85 0.87 0.88 0.91 0.96 1.00 0.98 0.94 0.96 0.98 0.94 0.87 0.78 0.75 0.70 0.73 0.85 0.96 0.99 0.93 0.90
0.37 0.41 0.52 0.66 0.71 0.73 0.73 0.73 0.75 0.70 0.71 0.67 0.69 0.70 0.70 0.70 0.73 0.80 0.88 0.94 0.88 0.80 0.77 0.76 0.79 0.87 0.94 0.98 0.89 0.78 0.78 0.78 0.79 0.81 0.84 0.88 0.87 0.86
0.39 0.43 0.60 0.67 0.66 0.69 0.76 0.79 0.73 0.63 0.64 0.63 0.58 0.57 0.56 0.55 0.58 0.63 0.71 0.79 0.80 0.76 0.73 0.71 0.73 0.78 0.81 0.78 0.74 0.67 0.69 0.76 0.84 0.84 0.79 0.76 0.73 0.72
0.45 0.60 0.76 0.80 0.75 0.69 0.66 0.62 0.55 0.50 0.49 0.47 0.47 0.47 0.49 0.51 0.52 0.53 0.56 0.59 0.64 0.67 0.73 0.75 0.76 0.78 0.79 0.77 0.71 0.64 0.61 0.67 0.74 0.80 0.78 0.79 0.81 0.85
0.44 0.55 0.66 0.75 0.70 0.57 0.48 0.44 0.41 0.41 0.41 0.41 0.44 0.47 0.48 0.50 0.51 0.54 0.55 0.57 0.59 0.62 0.65 0.67 0.71 0.84 0.88 0.89 0.83 0.68 0.63 0.70 0.77 0.77 0.78 0.81 0.83 0.81
0.32 0.35 0.38 0.41 0.39 0.37 0.37 0.36 0.36 0.38 0.40 0.41 0.44 0.47 0.51 0.56 0.56 0.54 0.55 0.56 0.56 0.57 0.57 0.59 0.68 0.80 0.87 0.90 0.83 0.70 0.62 0.64 0.75 0.84 0.84 0.82 0.79 0.75
0.30 0.32 0.33 0.34 0.34 0.33 0.34 0.34 0.36 0.38 0.40 0.42 0.45 0.49 0.51 0.53 0.56 0.57 0.56 0.57 0.57 0.57 0.59 0.60 0.64 0.74 0.82 0.84 0.81 0.74 0.68 0.65 0.66 0.68 0.70 0.76 0.74 0.69